This demonstration page uses our WeatherBlox Daily Observations layout. Learn more.

38.89511, -77.03637

Hourly Observations for August 4, 2015

Temp ( °F °C ) Dew Point ( °F °C ) Humidity (%) Winds ( mph kmh ) Pressure ( in mb ) Visibility ( mi km ) Precip ( " mm )
12:52 am 00:52 Mostly Cloudy with Haze 81 27.2 69 20.6 67 67 SSW 6 9 29.84 1011 5 8.0467 0 0
1:52 am 01:52 Mostly Cloudy with Haze 81 27.2 68 20 65 65 SSW 8 13 29.85 1011 6 9.65604 0 0
2:52 am 02:52 Mostly Cloudy with Haze 79 26.1 67 19.4 67 67 SSW 5 7 29.84 1011 5 8.0467 0 0
3:52 am 03:52 Mostly Cloudy 79 26.1 67 19.4 67 67 SW 3 6 29.86 1011 8 12.87472 0 0
4:52 am 04:52 Cloudy with Haze 80 26.7 68 20 67 67 SSW 5 7 29.88 1012 6 9.65604 0 0
5:15 am 05:15 Mostly Cloudy 81 27 63 17 54 54 NNW 20 31 29.91 1013 10 16.0934 0 0
5:18 am 05:18 Mostly Cloudy 81 27 63 17 54 54 NNW 22 35 29.91 1013 10 16.0934 0 0
5:52 am 05:52 Mostly Cloudy 77 25 60 15.6 56 56 NNW 6 9 29.9 1013 10 16.0934 0 0
6:52 am 06:52 Mostly Cloudy 79 26.1 61 16.1 54 54 NE 3 6 29.92 1013 10 16.0934 0 0
7:52 am 07:52 Partly Cloudy 80 26.7 62 16.7 54 54 WSW 5 7 29.93 1014 10 16.0934 0 0
8:52 am 08:52 Mostly Sunny 82 27.8 64 17.8 55 55 SSW 8 13 29.93 1014 10 16.0934 0 0
9:52 am 09:52 Mostly Sunny 85 29.4 68 20 57 57 SW 5 7 29.93 1014 10 16.0934 0 0
10:52 am 10:52 Mostly Sunny 89 31.7 66 18.9 47 47 WNW 7 11 29.94 1014 10 16.0934 0 0
11:52 am 11:52 Mostly Sunny 89 31.7 69 20.6 52 52 SSE 6 9 29.93 1014 10 16.0934 0 0
12:52 pm 12:52 Mostly Sunny 93 33.9 66 18.9 41 41 SSW 10 17 29.92 1013 10 16.0934 0 0
1:52 pm 13:52 Partly Cloudy 93 33.9 63 17.2 37 37 W 8 13 29.91 1013 10 16.0934 0 0
2:52 pm 14:52 Partly Cloudy 95 35 63 17.2 35 35 SW 14 22 29.89 1012 10 16.0934 0 0
3:52 pm 15:52 Mostly Cloudy 96 35.6 63 17.2 34 34 WSW 15 24 29.88 1012 10 16.0934 0 0
4:52 pm 16:52 Mostly Cloudy 94 34.4 68 20 43 43 SSW 14 22 29.88 1012 10 16.0934 0 0
5:52 pm 17:52 Mostly Cloudy 93 33.9 64 17.8 38 38 SW 10 17 29.85 1011 10 16.0934 0 0
6:52 pm 18:52 Mostly Cloudy with Light Rain 89 31.7 67 19.4 48 48 W 13 20 29.88 1012 10 16.0934 0 0.0254
7:52 pm 19:52 Mostly Cloudy 85 29.4 68 20 57 57 NE 7 11 29.89 1012 10 16.0934 0 0.0254
8:52 pm 20:52 Mostly Cloudy 82 27.8 69 20.6 65 65 N 6 9 29.89 1012 10 16.0934 0 0
9:52 pm 21:52 Cloudy with Light Rain 82 27.8 70 21.1 67 67 WNW 3 6 29.91 1013 9 14.48406 0.02 0.508
10:52 pm 22:52 Mostly Cloudy 80 26.7 70 21.1 71 71 N 3 6 29.92 1013 10 16.0934 0.02 0.508
11:52 pm 23:52 Partly Cloudy 78 25.6 71 21.7 79 79 NNW 8 13 29.93 1014 10 16.0934 0 0

Powered by AerisWeather